Date String (YYYY-MM-DD hh:mm:ss) UTC,Instrument flags,Ambient pressure (hPa),Sample flow (lpm),Bypass flow (lpm),Sample temperature (°C),Ambient temperature (°C),ASC tube jacket temperature (°C),LED temperature (°C),Box temperature (°C),Sample RH (%),Span deviation,Mass concentration (μg/m³),Mass concentration (μg/m³),Mass concentration (μg/m³)
DateTimeUTC,F1_M11,P_M11,Q1_M11,Q2_M11,T1_M11,T2_M11,T3_M11,T4_M11,T5_M11,U1_M11,ZSPAN_M11,X0_M11,X2_M11,X1_M11
2022-12-19 18:00:00,,0823.5,4.98,0.00,22.3,22.3,00.0,30.9,24.3,05.3,0000.0,0013.22,0002.81,0000.87
2022-12-19 18:01:00,,0823.5,5.01,0.00,22.3,22.0,00.0,30.9,24.2,05.3,0000.0,0014.99,0003.10,0000.89
2022-12-19 18:02:00,,0823.6,5.02,0.00,22.3,21.8,00.0,31.0,24.2,05.3,0000.0,0016.38,0003.16,0000.91
2022-12-19 18:03:00,,0823.5,4.96,0.00,22.3,21.5,00.0,31.0,24.2,05.4,0000.0,0017.64,0003.22,0000.93
2022-12-19 18:04:00,,0823.4,5.03,0.00,22.3,21.3,00.0,31.0,24.1,05.4,0000.0,0018.26,0003.27,0000.95
2022-12-19 18:05:00,,0823.3,5.01,0.00,22.3,21.2,00.0,31.0,24.1,05.4,0000.0,0018.81,0003.29,0000.96
2022-12-19 18:06:00,,0823.3,4.97,0.00,22.3,21.1,00.0,31.0,24.1,05.3,0000.0,0019.13,0003.34,0000.98
2022-12-19 18:07:00,,0823.4,5.02,0.00,22.3,21.0,00.0,31.0,24.1,05.3,0000.0,0019.98,0003.38,0000.98
2022-12-19 18:08:00,,0823.3,4.98,0.00,22.3,21.0,00.0,31.0,24.0,05.3,0000.0,0021.17,0003.39,0000.99
2022-12-19 18:09:00,,0823.1,4.98,0.00,22.2,20.9,00.0,31.0,24.0,05.3,0000.0,0021.03,0003.37,0001.00
2022-12-19 18:10:00,,0823.0,5.02,0.00,22.2,20.8,00.0,31.0,23.9,05.3,0000.0,0020.48,0003.45,0001.02
2022-12-19 18:11:00,,0823.1,5.01,0.00,22.2,20.8,00.0,31.0,23.9,05.3,0000.0,0019.18,0003.46,0001.03
2022-12-19 18:12:00,,0823.2,4.96,0.00,22.2,20.7,00.0,31.0,23.9,05.3,0000.0,0018.11,0003.40,0001.01
2022-12-19 18:13:00,,0823.1,5.01,0.00,22.2,20.6,00.0,31.0,23.8,05.3,0000.0,0019.40,0003.57,0001.05
2022-12-19 18:14:00,,0823.1,5.02,0.00,22.1,20.6,00.0,31.0,23.9,05.3,0000.0,0018.88,0003.69,0001.06
2022-12-19 18:15:00,,0823.0,4.99,0.00,22.1,20.6,00.0,31.0,23.8,05.3,0000.0,0019.39,0003.67,0001.05
2022-12-19 18:16:00,,0822.9,4.98,0.00,22.1,20.6,00.0,31.0,23.8,05.3,0000.0,0018.58,0003.63,0001.06
2022-12-19 18:17:00,,0823.1,5.04,0.00,22.2,21.6,00.0,30.9,24.1,05.3,0000.0,0018.51,0003.62,0001.06
2022-12-19 18:18:00,,0823.0,4.98,0.00,22.3,22.7,00.0,30.9,24.4,05.3,0000.0,0018.34,0003.61,0001.07
2022-12-19 18:19:00,,0822.9,4.99,0.00,22.4,22.6,00.0,31.0,24.5,05.3,0000.0,0017.12,0003.54,0001.08
2022-12-19 18:20:00,,0822.8,5.01,0.00,22.4,22.2,00.0,31.1,24.4,05.1,0000.0,0016.67,0003.49,0001.07
2022-12-19 18:21:00,,0822.8,5.00,0.00,22.4,21.8,00.0,31.1,24.3,05.1,0000.0,0017.79,0003.43,0001.05
2022-12-19 18:22:00,,0822.9,4.98,0.00,22.4,21.6,00.0,31.1,24.2,05.1,0000.0,0017.85,0003.42,0001.05
2022-12-19 18:23:00,,0822.8,5.03,0.00,22.4,21.4,00.0,31.1,24.2,05.1,0000.0,0016.79,0003.34,0001.04
2022-12-19 18:24:00,,0822.9,4.95,0.00,22.4,21.3,00.0,31.1,24.2,05.1,0000.0,0015.96,0003.17,0001.03
2022-12-19 18:25:00,,0822.9,5.01,0.00,22.4,21.1,00.0,31.1,24.1,05.1,0000.0,0014.85,0002.84,0001.01
2022-12-19 18:26:00,,0822.9,5.03,0.00,22.4,21.0,00.0,31.1,24.1,05.1,0000.0,0014.22,0002.80,0001.03
2022-12-19 18:27:00,,0822.9,4.95,0.00,22.3,20.9,00.0,31.1,24.0,05.1,0000.0,0015.19,0002.85,0001.03
2022-12-19 18:28:00,,0822.7,5.02,0.00,22.3,20.8,00.0,31.1,24.0,05.1,0000.0,0015.77,0002.96,0001.05
2022-12-19 18:29:00,,0822.8,5.03,0.00,22.3,20.7,00.0,31.1,23.9,05.0,0000.0,0022.15,0003.22,0001.08
2022-12-19 18:30:00,,0822.7,5.00,0.00,22.2,20.5,00.0,31.1,23.8,05.1,0000.0,0024.06,0003.39,0001.10
2022-12-19 18:31:00,,0822.7,4.95,0.00,22.1,20.4,00.0,31.1,23.7,05.1,0000.0,0024.16,0003.51,0001.13
2022-12-19 18:32:00,,0822.7,5.02,0.00,22.1,20.3,00.0,31.0,23.6,05.1,0000.0,0024.88,0003.77,0001.20
2022-12-19 18:33:00,,0822.7,5.03,0.00,22.0,20.2,00.0,31.0,23.6,05.0,0000.0,0025.99,0004.04,0001.26
2022-12-19 18:34:00,,0822.6,4.98,0.00,22.0,20.1,00.0,31.0,23.5,05.1,0000.0,0027.25,0004.18,0001.27
2022-12-19 18:35:00,,0822.9,4.97,0.00,22.0,20.5,00.0,30.9,23.6,05.1,0000.0,0026.72,0004.28,0001.29
2022-12-19 18:36:00,,0822.8,5.03,0.00,22.1,21.8,00.0,30.9,24.0,05.0,0000.0,0026.55,0004.31,0001.28
2022-12-19 18:37:00,,0822.8,4.96,0.00,22.2,22.5,00.0,30.9,24.3,05.1,0000.0,0026.90,0004.34,0001.27
2022-12-19 18:38:00,,0822.8,5.04,0.00,22.3,22.3,00.0,31.0,24.3,05.0,0000.0,0025.73,0004.34,0001.27
2022-12-19 18:39:00,,0822.7,4.96,0.00,22.3,21.9,00.0,31.1,24.2,05.0,0000.0,0025.10,0004.31,0001.26
2022-12-19 18:40:00,,0822.8,5.03,0.00,22.3,21.5,00.0,31.1,24.1,04.9,0000.0,0018.31,0004.11,0001.24
2022-12-19 18:41:00,,0822.7,4.96,0.00,22.3,21.1,00.0,31.1,24.0,05.0,0000.0,0016.30,0003.95,0001.22
2022-12-19 18:42:00,,0822.8,5.02,0.00,22.2,20.9,00.0,31.1,23.9,05.0,0000.0,0016.36,0003.87,0001.20
2022-12-19 18:43:00,,0822.7,5.00,0.00,22.2,20.6,00.0,31.0,23.8,04.9,0000.0,0014.48,0003.55,0001.13
2022-12-19 18:44:00,,0822.9,5.02,0.00,22.1,20.5,00.0,31.0,23.7,04.9,0000.0,0012.32,0003.25,0001.07
2022-12-19 18:45:00,,0822.9,4.98,0.00,22.1,20.4,00.0,31.0,23.7,05.0,0000.0,0011.17,0003.13,0001.06
2022-12-19 18:46:00,,0822.7,4.97,0.00,22.0,20.3,00.0,31.0,23.6,05.1,0000.0,0011.63,0002.99,0001.04
2022-12-19 18:47:00,,0822.7,5.02,0.00,22.0,20.1,00.0,31.0,23.5,05.0,0000.0,0012.30,0003.01,0001.05
2022-12-19 18:48:00,,0822.7,5.03,0.00,21.9,20.0,00.0,30.9,23.5,05.0,0000.0,0013.24,0003.10,0001.07
2022-12-19 18:49:00,,0822.7,4.98,0.00,21.9,20.0,00.0,30.9,23.4,05.1,0000.0,0015.09,0003.12,0001.08
2022-12-19 18:50:00,,0822.7,4.97,0.00,21.9,20.4,00.0,30.9,23.5,05.1,0000.0,0015.86,0003.07,0001.07
2022-12-19 18:51:00,,0822.7,5.05,0.00,22.0,21.7,00.0,30.8,23.9,05.1,0000.0,0016.49,0003.12,0001.06
2022-12-19 18:52:00,,0822.5,4.96,0.00,22.1,22.4,00.0,30.9,24.2,05.1,0000.0,0017.32,0003.20,0001.06
2022-12-19 18:53:00,,0822.6,5.04,0.00,22.2,22.1,00.0,30.9,24.2,05.1,0000.0,0017.17,0003.20,0001.08
2022-12-19 18:54:00,,0822.6,4.97,0.00,22.2,21.7,00.0,31.0,24.1,05.1,0000.0,0017.64,0003.27,0001.09
2022-12-19 18:55:00,,0822.7,5.02,0.00,22.2,21.3,00.0,31.0,24.0,05.1,0000.0,0018.33,0003.39,0001.12
2022-12-19 18:56:00,,0822.5,5.03,0.00,22.2,21.0,00.0,31.0,23.9,05.1,0000.0,0018.89,0003.39,0001.13
2022-12-19 18:57:00,,0822.6,4.95,0.00,22.1,20.7,00.0,31.0,23.8,05.1,0000.0,0018.46,0003.30,0001.12
2022-12-19 18:58:00,,0822.6,5.03,0.00,22.1,20.5,00.0,31.0,23.7,05.1,0000.0,0017.65,0003.18,0001.10
2022-12-19 18:59:00,,0822.5,5.02,0.00,22.0,20.4,00.0,31.0,23.6,05.2,0000.0,0016.15,0003.02,0001.07
